Dickinson, ND

3:07 PM MDT on May 29, 2017 (GMT -0600)
Dickinson Municipal

Weather History for KDIK - October, 2014

Change the Weather History Date:

Tuesday, October 28, 2014

  Actual Average Record
Temperature  
Mean Temperature 28 °F 39 °F  
Max Temperature 38 °F 51 °F 80 °F (1937)
Min Temperature 18 °F 27 °F -7 °F (1925)
Degree Days  
Heating Degree Days 37 26  
Month to date heating degree days 464 573  
Since 1 July heating degree days 827 927  
Cooling Degree Days 0 0  
Month to date cooling degree days 0 0  
Year to date cooling degree days 256 418  
Moisture  
Dew Point 29 °F    
Average Humidity 80    
Maximum Humidity 96    
Minimum Humidity 64    
Precipitation  
Precipitation T in 0.03 in 1.13 in (1982)
Month to date precipitation 0.35 1.14  
Year to date precipitation 21.48 14.90  
Sea Level Pressure  
Sea Level Pressure 30.07 in    
Wind  
Wind Speed 14 mph (WNW)    
Max Wind Speed 25 mph    
Max Gust Speed 31 mph    
Visibility 8 miles    
Events Fog , Snow    
T = Trace of Precipitation, MM = Missing Value Source: NWS Daily Summary

Daily Weather History Graph

Daily Weather History Graph

Search for Another Location

Airport or City:

Trip Planner

Search our weather history database for the weather conditions in past years. The results will help you decide how hot, cold, wet, or windy it might be!

Date:

Astronomy

Oct. 28, 2014 Rise Set
Actual Time 7:27 AM MDT 5:41 PM MDT
Civil Twilight 6:56 AM MDT 6:12 PM MDT
Nautical Twilight 6:20 AM MDT 6:48 PM MDT
Astronomical Twilight 5:45 AM MDT 7:23 PM MDT
Moon 12:05 PM MDT (10/28) 9:43 PM MDT (10/28)
Length of Visible Light 11h 16m
Length of Day
10h 13m
Waxing Crescent, 25% of the Moon is Illuminated
Oct 28
Waxing Crescent
Oct 30
First Quarter
Nov 6
Full
Nov 14
Last Quarter
Nov 22
New

Hourly Weather History & Observations

Time (MDT) Temp. Windchill Dew Point Humidity Pressure Visibility Wind Dir Wind Speed Gust Speed Precip Events Conditions
12:06 AM 34.0 °F 22.4 °F 30.9 °F 89% 29.89 in 7.0 mi WNW 20.7 mph - 0.00 in Snow Light Snow
12:56 AM 34.0 °F 22.1 °F 32.0 °F 92% 29.96 in 9.0 mi WNW 21.9 mph 27.6 mph 0.00 in Snow Light Snow
1:40 AM 34.0 °F 21.8 °F 30.9 °F 89% 29.91 in 9.0 mi WNW 23.0 mph 31.1 mph 0.00 in   Overcast
1:56 AM 34.0 °F 22.1 °F 30.9 °F 89% 29.98 in 9.0 mi WNW 21.9 mph - 0.00 in   Overcast
2:36 AM 34.0 °F 22.4 °F 32.0 °F 92% 29.93 in 10.0 mi WNW 20.7 mph - 0.00 in   Overcast
2:39 AM 34.0 °F 22.1 °F 32.0 °F 92% 29.93 in 8.0 mi WNW 21.9 mph - 0.00 in   Overcast
2:56 AM 34.0 °F 22.7 °F 32.0 °F 92% 30.00 in 10.0 mi WNW 19.6 mph 28.8 mph 0.00 in   Overcast
3:10 AM 34.0 °F 22.1 °F 30.9 °F 89% 29.94 in 9.0 mi WNW 21.9 mph - N/A   Overcast
3:56 AM 34.0 °F 24.2 °F 32.0 °F 92% 30.01 in 10.0 mi WNW 15.0 mph - 0.00 in   Overcast
4:26 AM 34.0 °F 22.7 °F 32.0 °F 92% 29.95 in 10.0 mi WNW 19.6 mph - N/A   Overcast
4:41 AM 34.0 °F 22.4 °F 30.9 °F 89% 29.96 in 10.0 mi WNW 20.7 mph - N/A   Overcast
4:56 AM 34.0 °F 22.4 °F 30.9 °F 89% 30.03 in 10.0 mi WNW 20.7 mph 26.5 mph N/A   Overcast
5:56 AM 34.0 °F 23.0 °F 30.9 °F 89% 30.04 in 7.0 mi WNW 18.4 mph - 0.00 in Snow Light Snow
6:21 AM 34.0 °F 23.4 °F 30.9 °F 89% 29.98 in 7.0 mi WNW 17.3 mph - 0.00 in Snow Light Snow
6:32 AM 34.0 °F 23.4 °F 32.0 °F 92% 29.98 in 7.0 mi WNW 17.3 mph - 0.00 in Snow Light Snow
6:56 AM 34.0 °F 23.4 °F 30.9 °F 89% 30.06 in 5.0 mi WNW 17.3 mph - 0.00 in Snow Light Snow
7:19 AM 34.0 °F 23.4 °F 30.9 °F 89% 30.00 in 8.0 mi WNW 17.3 mph - 0.00 in   Overcast
7:56 AM 34.0 °F 23.0 °F 30.9 °F 89% 30.08 in 10.0 mi NW 18.4 mph - 0.00 in   Overcast
8:56 AM 34.0 °F 23.4 °F 30.9 °F 89% 30.12 in 5.0 mi NW 17.3 mph - 0.00 in Snow Light Snow
9:01 AM 34.0 °F 24.2 °F 30.9 °F 89% 30.05 in 8.0 mi NW 15.0 mph - 0.00 in   Overcast
9:50 AM 33.8 °F 22.8 °F 30.2 °F 87% 30.06 in 1.8 mi WNW 18.4 mph - 0.00 in Snow Light Snow
9:56 AM 33.1 °F 22.2 °F 30.9 °F 92% 30.13 in 0.8 mi NW 17.3 mph - 0.00 in Snow Light Snow
10:05 AM 33.1 °F 23.0 °F 30.9 °F 92% 30.06 in 0.5 mi NW 15.0 mph - 0.00 in Fog , Snow Light Snow
10:16 AM 33.1 °F 23.9 °F 30.9 °F 92% 30.06 in 2.0 mi NW 12.7 mph - 0.00 in Snow Light Snow
10:33 AM 34.0 °F 24.2 °F 32.0 °F 92% 30.06 in 5.0 mi NW 15.0 mph 20.7 mph 0.00 in Snow Light Snow
10:52 AM 35.6 °F 24.8 °F 32.0 °F 87% 30.07 in 10.0 mi WNW 19.6 mph 24.2 mph 0.00 in   Overcast
10:56 AM 36.0 °F 24.7 °F 30.9 °F 82% 30.14 in 10.0 mi NW 21.9 mph - 0.00 in   Overcast
11:56 AM 36.0 °F 25.6 °F 30.0 °F 79% 30.14 in 10.0 mi NW 18.4 mph 25.3 mph N/A   Overcast
12:56 PM 36.0 °F 25.6 °F 28.0 °F 73% 30.15 in 10.0 mi WNW 18.4 mph - N/A   Overcast
1:56 PM 37.0 °F 27.4 °F 28.0 °F 70% 30.14 in 10.0 mi NW 17.3 mph - N/A   Overcast
2:56 PM 37.9 °F 27.9 °F 27.0 °F 65% 30.14 in 10.0 mi WNW 19.6 mph - N/A   Overcast
3:56 PM 37.0 °F 27.7 °F 27.0 °F 67% 30.15 in 10.0 mi NW 16.1 mph - N/A   Overcast
4:56 PM 37.0 °F 28.1 °F 26.1 °F 65% 30.16 in 10.0 mi WNW 15.0 mph - N/A   Overcast
5:53 PM 33.8 °F 26.4 °F 24.8 °F 70% 30.09 in 10.0 mi NW 9.2 mph - N/A   Scattered Clouds
5:56 PM 33.1 °F 25.5 °F 25.0 °F 72% 30.17 in 10.0 mi NW 9.2 mph - N/A   Partly Cloudy
6:56 PM 30.0 °F 26.5 °F 24.1 °F 79% 30.19 in 10.0 mi NNW 3.5 mph - N/A   Clear
7:56 PM 25.0 °F - 21.0 °F 85% 30.20 in 10.0 mi Calm Calm - N/A   Clear
8:56 PM 21.0 °F 14.6 °F 17.1 °F 85% 30.20 in 10.0 mi SSW 4.6 mph - N/A   Clear
9:56 PM 21.0 °F 14.6 °F 17.1 °F 85% 30.20 in 10.0 mi South 4.6 mph - N/A   Clear
10:56 PM 19.9 °F 12.1 °F 15.1 °F 81% 30.19 in 10.0 mi South 5.8 mph - N/A   Clear
11:56 PM 19.0 °F 10.0 °F 15.1 °F 85% 30.17 in 10.0 mi South 6.9 mph - N/A   Clear